This is the latest recevied weather packets stored in our database for station/object KC5DAQ-29. If no packets are shown the sender has not sent any weather packets the latest 10 day(s).
| Time | Temp. | Humidity | Pressure | Rain* | Wind** | Luminosity | Snow |
|---|---|---|---|---|---|---|---|
| 1777674228 | 15.56° C | 100% | 1008.5 hPa | 2.79 mm | - | 234 W/m² | - |
| 1777674166 | 15.56° C | 100% | 1008.6 hPa | 3.05 mm | - | 142 W/m² | - |
| 1777674107 | 15.56° C | 100% | 1008.9 hPa | 3.05 mm | - | 142 W/m² | - |
| 1777674048 | 16.11° C | 100% | 1008.9 hPa | 3.05 mm | - | 111 W/m² | - |
| 1777673986 | 16.11° C | 100% | 1009 hPa | 3.05 mm | - | 111 W/m² | - |
| 1777673927 | 16.11° C | 100% | 1009.1 hPa | 3.05 mm | - | 111 W/m² | - |
| 1777673867 | 16.11° C | 100% | 1009 hPa | 3.3 mm | - | 111 W/m² | - |
| 1777673806 | 16.11° C | 100% | 1009 hPa | 3.05 mm | - | 111 W/m² | - |
| 1777673747 | 15.56° C | 100% | 1009 hPa | 3.05 mm | - | 111 W/m² | - |
| 1777673687 | 15.56° C | 100% | 1009 hPa | 3.05 mm | - | 111 W/m² | - |
| 1777673627 | 15.56° C | 100% | 1009 hPa | 3.3 mm | - | 111 W/m² | - |
| 1777673567 | 15.56° C | 100% | 1008.9 hPa | 3.3 mm | - | 190 W/m² | - |
| 1777673507 | 15.56° C | 100% | 1008.8 hPa | 3.3 mm | - | 190 W/m² | - |
| 1777673447 | 15.56° C | 100% | 1008.7 hPa | 3.05 mm | - | 190 W/m² | - |
| 1777673385 | 15.56° C | 100% | 1008.7 hPa | 3.3 mm | - | 190 W/m² | - |
| 1777673326 | 15.56° C | 100% | 1008.7 hPa | 3.81 mm | - | 190 W/m² | - |
| 1777673265 | 15.56° C | 100% | 1008.7 hPa | 3.81 mm | - | 190 W/m² | - |
| 1777673205 | 15.56° C | 100% | 1008.6 hPa | 3.56 mm | - | 98 W/m² | - |
| 1777673147 | 15.56° C | 100% | 1008.5 hPa | 3.56 mm | - | 98 W/m² | - |
| 1777673086 | 15.56° C | 100% | 1008.5 hPa | 3.56 mm | - | 98 W/m² | - |
| 1777673026 | 15.56° C | 100% | 1008.6 hPa | 3.56 mm | - | 98 W/m² | - |
| 1777672966 | 15.56° C | 100% | 1008.6 hPa | 3.56 mm | - | 98 W/m² | - |
| 1777672907 | 15.56° C | 100% | 1008.7 hPa | 3.3 mm | - | 98 W/m² | - |
| 1777672846 | 15.56° C | 100% | 1008.8 hPa | 3.3 mm | - | 26 W/m² | - |
| 1777672786 | 15.56° C | 100% | 1009 hPa | 3.3 mm | - | 26 W/m² | - |
* Rain latest hour (hover to see other rain measurements)
** Current wind speed in m/s (hover to see current wind gust speed)